Showing default

YAM-11, 68991

Orbit data source: Space-Track

YAM-11, 68991 is an American payload satellite in SSO that was launched on Sun, 03 May 2026 UTC via an FALCON 9 launch vehicle from the Air Force Western Test Range (AFWTR). Payload-class satellites include a variety of spacecraft equipped with specific instruments for various scientific and technological missions. These include communications satellites like Starlink; space stations such as the ISS; scientific satellites like the Hubble; Earth observation satellites from companies like Planet Labs, Umbra, and HawkEye 360; GPS; miniature CubeSats for education and research; and military/defense satellites.

Loading next visibility...
Identifier
68991, 2026-100M
Orbit
SSO
Country
Flag of USUS
Related business
Manufacturer
Airbus/Toulouse
Mission
Operational Commercial Imaging
Bus & Motor
ARROW, Unknown motor
Mass
~150 kg wet, ~140 kg dry
Launch date (UTC)
2026-05-03 (5 months ago)
Launch vehicle
FALCON 9
Launch site
Air Force Western Test Range (AFWTR)
Object type
Payload
Rocket body
Debris
Shape & HBR
Trap Box + 2 Pan, 2.3 m
Radar Cross Section
2.032 m², Large (>1 m²)

Expand to show TLE details & history
Last TLE update: 9 hours ago

TLE from 9 hours ago
0 YAM-11
1 68991U 26100M   26266.13707170  .00001006  00000-0  10889-3 0  9996
2 68991  97.7723 161.8186 0001868  77.6017 282.5410 14.90420342 21286
Epoch: 2026-09-23T03:17Z
TLE epoch observation values (Epoch: 2026-09-23T03:17:22.994Z)
Latitude
-0.00005°
Longitude
110.48028°
Altitude
599.381 km
Speed
7.56 km/s
True Right ascension
10h 47m 16s
True Declination
0° 00' 00"
Sunlit
Object was in daylight at epoch
Visualization orbit readout
Latitude
Unknown
Longitude
Unknown
Altitude
Unknown
Speed
Unknown
Apparent Right ascension
Unknown
Apparent Declination
Unknown
Sunlit
N/A
Visualization observer readout
Local Sidereal Time
05:23:28
Azimuth
Unknown
Elevation
Unknown
Doppler factor
Unknown
Orbital elements
Apogee altitude
594.948 km
Perigee altitude
592.343 km
Semi-major axis
6,971.782 km
Eccentricity
0.00019
Inclination
97.7723°
RAAN
161.8186°
Arg. of periapsis
77.6017°
True anomaly
282.5201°
Mean anomaly
282.541°
Eccentric anomaly
282.53055°
Mean motion
3.72844 °/min
Orbital period
96.56 mins
BSTAR
0.00010889
Loading maneuver chart data...
Computing Atmospheric mass density...
Loading historical data...
Loading historical data...
Loading historical data...
Loading historical data...
Loading historical data...
Loading historical data...
Loading historical data...

Documentation

Showing up to 5 results
|